• In Belarus
  • List of Countries
  • For 7 days
  • Water Temperature
  • Satellite Maps
  • Weather Map
  • Weather Widgets
  • user-avatar
    Login

    Hourly Weather Natitingou

    Today, 19 March, Tuesday

    Time Temperature Precipitation Wind Pressure Humidity
    00:00 +29°C° 0 mm 0 mps 716 mmHg 21%
    01:00 +29°C° 0 mm 0 mps 715 mmHg 21%
    02:00 +31°C° 0 mm 1 mps 715 mmHg 22%
    03:00 +30°C° 0 mm 1 mps 715 mmHg 22%
    04:00 +30°C° 0 mm 1 mps 715 mmHg 25%
    05:00 +30°C° 0 mm 1 mps 715 mmHg 28%
    06:00 +29°C° 0 mm 1 mps 715 mmHg 33%
    07:00 +31°C° 0 mm 2 mps 716 mmHg 33%
    08:00 +34°C° 0 mm 2 mps 716 mmHg 32%
    09:00 +36°C° 0 mm 3 mps 717 mmHg 32%
    10:00 +39°C° 0 mm 2 mps 716 mmHg 27%
    11:00 +41°C° 0 mm 2 mps 716 mmHg 22%
    12:00 +40°C° 0 mm 3 mps 716 mmHg 28%
    13:00 +40°C° 0 mm 2 mps 715 mmHg 27%
    14:00 +39°C° 0 mm 2 mps 715 mmHg 27%
    15:00 +39°C° 0 mm 2 mps 714 mmHg 26%
    16:00 +38°C° 0 mm 2 mps 714 mmHg 27%
    17:00 +37°C° 0 mm 1 mps 714 mmHg 28%
    18:00 +36°C° 0 mm 1 mps 714 mmHg 30%
    19:00 +35°C° 0.1 mm 1 mps 714 mmHg 32%
    20:00 +34°C° 0.1 mm 1 mps 715 mmHg 34%
    21:00 +31°C° 0.1 mm 0 mps 715 mmHg 36%
    22:00 +33°C° 0 mm 1 mps 715 mmHg 36%
    23:00 +33°C° 0 mm 1 mps 715 mmHg 36%

    Tomorrow, 20 March, Wednesday

    Time Temperature Precipitation Wind Pressure Humidity
    00:00 +33°C° 0 mm 1 mps 715 mmHg 36%
    01:00 +33°C° 0 mm 1 mps 715 mmHg 37%
    02:00 +33°C° 0 mm 1 mps 715 mmHg 38%
    03:00 +32°C° 0 mm 1 mps 714 mmHg 38%
    04:00 +32°C° 0.3 mm 2 mps 715 mmHg 42%
    05:00 +31°C° 0.3 mm 2 mps 715 mmHg 45%
    06:00 +31°C° 0.3 mm 2 mps 715 mmHg 49%
    07:00 +31°C° 0.2 mm 3 mps 716 mmHg 49%
    08:00 +33°C° 0.2 mm 3 mps 717 mmHg 50%
    09:00 +33°C° 0.2 mm 4 mps 717 mmHg 51%
    10:00 +36°C° 0 mm 3 mps 717 mmHg 43%
    11:00 +38°C° 0 mm 3 mps 717 mmHg 36%
    12:00 +40°C° 0 mm 2 mps 717 mmHg 28%
    13:00 +40°C° 0 mm 2 mps 716 mmHg 28%
    14:00 +40°C° 0 mm 3 mps 715 mmHg 27%
    15:00 +39°C° 0 mm 3 mps 714 mmHg 27%
    16:00 +39°C° 0 mm 2 mps 714 mmHg 28%
    17:00 +38°C° 0 mm 2 mps 714 mmHg 29%
    18:00 +36°C° 0 mm 1 mps 714 mmHg 30%
    19:00 +35°C° 0 mm 1 mps 714 mmHg 32%
    20:00 +34°C° 0 mm 1 mps 714 mmHg 33%
    21:00 +33°C° 0 mm 1 mps 715 mmHg 35%
    22:00 +33°C° 0 mm 1 mps 715 mmHg 36%
    23:00 +34°C° 0 mm 2 mps 715 mmHg 37%

    Day after tomorrow, 21 March, Thursday

    Time Temperature Precipitation Wind Pressure Humidity
    00:00 +32°C° 0 mm 2 mps 715 mmHg 37%
    01:00 +31°C° 0 mm 2 mps 715 mmHg 46%
    02:00 +30°C° 0 mm 2 mps 714 mmHg 54%
    03:00 +30°C° 0 mm 2 mps 714 mmHg 62%
    04:00 +29°C° 0 mm 1 mps 714 mmHg 65%
    05:00 +29°C° 0 mm 1 mps 714 mmHg 67%
    06:00 +28°C° 0 mm 1 mps 715 mmHg 69%
    07:00 +30°C° 0 mm 2 mps 716 mmHg 63%
    08:00 +33°C° 0 mm 3 mps 716 mmHg 57%
    09:00 +34°C° 0 mm 4 mps 717 mmHg 51%
    10:00 +36°C° 0 mm 4 mps 717 mmHg 45%
    11:00 +38°C° 0 mm 3 mps 717 mmHg 38%
    12:00 +39°C° 0 mm 3 mps 716 mmHg 31%
    13:00 +39°C° 0 mm 3 mps 715 mmHg 32%
    14:00 +38°C° 0 mm 3 mps 714 mmHg 32%
    15:00 +38°C° 0 mm 3 mps 713 mmHg 33%
    16:00 +38°C° 0 mm 2 mps 713 mmHg 33%
    17:00 +37°C° 0 mm 2 mps 713 mmHg 33%
    18:00 +36°C° 0 mm 1 mps 713 mmHg 33%
    19:00 +36°C° 0 mm 2 mps 714 mmHg 35%
    20:00 +35°C° 0 mm 2 mps 715 mmHg 38%
    21:00 +34°C° 0 mm 2 mps 715 mmHg 40%
    22:00 +33°C° 0 mm 3 mps 715 mmHg 46%
    23:00 +31°C° 0 mm 3 mps 715 mmHg 51%

    22 March, Friday

    Time Temperature Precipitation Wind Pressure Humidity
    00:00 +30°C° 0 mm 4 mps 715 mmHg 57%
    01:00 +29°C° 0 mm 3 mps 714 mmHg 56%
    02:00 +29°C° 0 mm 2 mps 714 mmHg 55%
    03:00 +29°C° 0 mm 2 mps 714 mmHg 54%
    04:00 +28°C° 0 mm 1 mps 714 mmHg 56%
    05:00 +28°C° 0 mm 1 mps 714 mmHg 58%
    06:00 +25°C° 0 mm 0 mps 715 mmHg 60%
    07:00 +29°C° 0.2 mm 1 mps 716 mmHg 54%
    08:00 +31°C° 0.2 mm 2 mps 717 mmHg 47%
    09:00 +34°C° 0.2 mm 3 mps 718 mmHg 41%
    10:00 +36°C° 0 mm 3 mps 717 mmHg 36%
    11:00 +38°C° 0 mm 3 mps 717 mmHg 32%
    12:00 +39°C° 0 mm 3 mps 717 mmHg 28%
    13:00 +39°C° 0 mm 2 mps 716 mmHg 26%
    14:00 +40°C° 0 mm 2 mps 715 mmHg 25%
    15:00 +40°C° 0 mm 1 mps 714 mmHg 23%
    16:00 +39°C° 0 mm 1 mps 714 mmHg 25%
    17:00 +38°C° 0 mm 2 mps 715 mmHg 26%
    18:00 +37°C° 0 mm 2 mps 715 mmHg 28%
    19:00 +36°C° 0 mm 2 mps 715 mmHg 31%
    20:00 +35°C° 0 mm 2 mps 715 mmHg 35%
    21:00 +34°C° 0 mm 2 mps 715 mmHg 38%
    22:00 +32°C° 0 mm 2 mps 715 mmHg 40%
    23:00 +32°C° 0 mm 2 mps 715 mmHg 42%

    23 March, Saturday

    Time Temperature Precipitation Wind Pressure Humidity
    00:00 +31°C° 0 mm 1 mps 715 mmHg 44%
    01:00 +31°C° 0 mm 1 mps 715 mmHg 46%
    02:00 +30°C° 0 mm 1 mps 714 mmHg 48%
    03:00 +30°C° 0 mm 1 mps 714 mmHg 50%
    04:00 +30°C° 0 mm 1 mps 715 mmHg 52%
    05:00 +29°C° 0 mm 1 mps 715 mmHg 55%
    06:00 +29°C° 0 mm 1 mps 715 mmHg 58%
    07:00 +31°C° 0 mm 2 mps 716 mmHg 51%
    08:00 +34°C° 0 mm 2 mps 717 mmHg 43%
    09:00 +36°C° 0 mm 3 mps 717 mmHg 36%
    10:00 +38°C° 0 mm 2 mps 717 mmHg 29%
    11:00 +41°C° 0 mm 2 mps 717 mmHg 22%
    12:00 +43°C° 0 mm 2 mps 716 mmHg 16%
    13:00 +43°C° 0 mm 1 mps 715 mmHg 14%
    14:00 +44°C° 0 mm 1 mps 715 mmHg 12%
    15:00 +45°C° 0 mm 1 mps 714 mmHg 11%
    16:00 +43°C° 0 mm 1 mps 714 mmHg 12%
    17:00 +41°C° 0 mm 1 mps 714 mmHg 12%
    18:00 +39°C° 0 mm 1 mps 714 mmHg 13%
    19:00 +37°C° 0 mm 1 mps 714 mmHg 13%
    20:00 +36°C° 0 mm 1 mps 715 mmHg 13%
    21:00 +35°C° 0 mm 1 mps 715 mmHg 12%
    22:00 +34°C° 0 mm 1 mps 715 mmHg 14%
    23:00 +33°C° 0 mm 1 mps 715 mmHg 16%

    24 March, Sunday

    Time Temperature Precipitation Wind Pressure Humidity
    00:00 +33°C° 0 mm 1 mps 715 mmHg 18%
    01:00 +32°C° 0 mm 1 mps 714 mmHg 24%
    02:00 +31°C° 0 mm 2 mps 714 mmHg 31%
    03:00 +31°C° 0 mm 2 mps 714 mmHg 37%
    04:00 +30°C° 0 mm 2 mps 714 mmHg 46%
    05:00 +29°C° 0 mm 2 mps 715 mmHg 55%
    06:00 +29°C° 0 mm 2 mps 715 mmHg 64%
    07:00 +30°C° 0 mm 2 mps 716 mmHg 58%
    08:00 +32°C° 0 mm 2 mps 716 mmHg 52%
    09:00 +35°C° 0 mm 2 mps 717 mmHg 46%
    10:00 +38°C° 0 mm 2 mps 716 mmHg 37%
    11:00 +41°C° 0 mm 1 mps 716 mmHg 28%
    12:00 +44°C° 0 mm 1 mps 716 mmHg 19%
    13:00 +44°C° 0 mm 1 mps 715 mmHg 17%
    14:00 +44°C° 0 mm 1 mps 714 mmHg 16%
    15:00 +44°C° 0 mm 1 mps 714 mmHg 14%
    16:00 +43°C° 0 mm 1 mps 714 mmHg 15%
    17:00 +41°C° 0 mm 1 mps 714 mmHg 16%
    18:00 +40°C° 0 mm 1 mps 714 mmHg 17%
    19:00 +39°C° 0 mm 2 mps 714 mmHg 22%
    20:00 +38°C° 0 mm 2 mps 714 mmHg 26%
    21:00 +37°C° 0 mm 3 mps 715 mmHg 31%
    22:00 +36°C° 0 mm 3 mps 715 mmHg 34%
    23:00 +36°C° 0 mm 3 mps 715 mmHg 37%
    Show more